2024-174F

Last updated on Fri Oct 25 2024 00:02:04 GMT+0000 (Coordinated Universal Time)

1 61263U 24174F 24298.55578499 .00187033 11888-4 10502-2 0 9995 2 61263 97.4300 305.1827 0153139 280.2005 78.2014 15.64316644 4565
UTC large
Height (km)
Speed (km/s)
/
Latitude / Longitude
Inclination (degrees)
Orbital Period (minutes)
Azimuth
Elevation
Range (km)
Doppler Factor

Next 0 passes for location: London (51.5072 / 0.1276)

Sorry there are no passes over London.